SCP
0 0 0 0 0 0 0 0 0 0 0 0 0 0 0 0 0 0 0 0 1 1 1 1 2 2 1 1 1 1 1 1 1 1 1 1 2 2 1 1 1 1 1
0 0 0 0 0 0 0 0 0 0 0 0 0 0 0 0 0 0 0 0 0 1 1 1 2 2 2 1 1 1 1 1 1 1 1 1 1 1 1 1 1 1 1
0 0 0 0 0 0 0 0 0 0 0 0 0 0 0 0 0 0 0 0 0 0 1 1 1 1 1 1 1 1 1 1 1 1 1 1 1 1 1 1 1 1 1
0 0 0 0 0 0 0 0 0 0 0 0 0 0 0 0 0 0 0 0 0 0 0 0 1 1 2 1 1 1 0 0 0 0 1 1 1 1 1 1 1 1 1
0 0 0 0 0 0 0 0 0 0 0 0 0 0 0 0 0 0 0 0 0 0 0 0 0 1 2 2 1 1 1 0 0 0 1 1 1 1 1 1 1 1 1
0 0 0 0 0 0 0 0 0 0 0 0 0 0 0 0 0 0 0 0 0 0 0 0 0 0 1 1 2 1 1 1 1 1 1 1 1 1 1 1 0 0 1
0 0 0 0 0 0 0 0 0 0 0 0 0 0 0 0 0 0 0 0 0 0 0 0 0 0 0 1 1 1 1 1 1 1 1 1 1 1 1 1 1 1 1
0 0 0 0 0 0 0 0 0 0 0 0 0 0 0 0 0 0 0 0 0 0 0 0 0 0 0 0 0 1 1 1 1 1 1 1 1 1 1 1 1 1 1
0 0 0 0 0 0 0 0 0 0 0 0 0 0 0 0 0 0 0 0 0 0 0 0 0 0 0 0 0 0 1 1 1 1 1 1 1 1 1 1 1 1 1
0 0 0 0 0 0 0 0 0 0 0 0 0 0 0 0 0 0 0 0 0 0 0 0 0 0 0 0 0 0 1 1 1 1 1 1 1 1 1 1 1 1 1
0 0 0 0 0 0 0 0 0 0 0 0 0 0 0 0 0 0 0 0 0 0 0 0 0 0 0 0 0 0 0 1 1 1 1 1 1 1 2 1 1 1 1
0 0 0 0 0 0 0 0 0 0 0 0 0 0 0 0 0 0 0 0 0 0 0 0 0 0 0 0 0 0 0 1 1 1 1 1 1 1 2 1 1 1 1
0 0 0 0 0 0 0 0 0 0 0 0 0 0 0 0 0 0 0 0 0 0 0 0 0 0 0 0 0 0 0 0 1 1 1 1 1 1 1 1 1 1 1
0 0 0 0 0 0 0 0 0 0 0 0 0 0 0 0 0 0 0 0 0 0 0 0 0 0 0 0 0 0 0 0 1 1 1 1 1 1 1 1 1 1 1
0 0 0 0 0 0 0 0 0 0 0 0 0 0 0 0 0 0 0 0 0 0 0 0 0 0 0 0 0 0 0 0 0 1 1 1 1 1 1 1 1 1 1
0 0 0 0 0 0 0 0 1 1 0 0 0 0 0 0 0 0 0 0 0 0 0 0 0 0 0 0 0 0 0 0 0 0 0 1 1 1 1 1 1 1 0
0 0 0 0 0 0 0 0 1 1 1 1 0 0 0 0 0 0 0 0 0 0 0 0 0 0 0 0 0 0 0 0 0 0 0 0 0 1 1 1 1 0 0
0 0 0 0 0 0 0 0 1 1 1 1 1 1 1 0 0 0 0 0 0 0 0 0 0 0 0 0 0 0 0 0 0 0 0 0 0 0 1 1 1 0 0
0 0 0 0 0 0 0 0 0 1 1 1 1 1 1 1 0 0 0 0 0 0 0 0 0 0 0 0 0 0 0 0 0 0 0 0 0 0 0 0 1 1 0
0 0 0 0 0 0 0 0 0 0 1 1 1 1 1 1 1 1 1 0 0 0 0 0 0 0 0 0 0 0 0 0 0 0 0 0 0 0 0 0 0 0 0
0 0 0 0 0 0 0 0 0 0 0 1 1 1 1 0 0 1 1 1 1 1 1 0 0 0 0 0 0 0 0 0 0 0 0 0 0 0 0 0 0 0 0
0 0 0 0 0 0 0 0 0 0 0 0 0 0 0 0 0 0 0 0 0 1 1 1 0 0 0 0 0 0 0 0 0 0 0 0 0 0 0 0 0 0 0
0 0 0 0 0 0 0 0 0 0 0 0 0 0 0 0 0 0 0 0 0 0 0 0 0 0 0 0 0 0 0 0 0 0 0 0 0 0 0 0 0 0 0
0 0 0 0 0 0 0 0 0 0 0 0 0 0 0 0 0 0 0 0 0 0 0 0 0 0 0 0 0 0 0 0 0 0 0 0 0 0 0 0 0 0 0
0 0 0 0 0 0 0 0 0 0 0 0 0 0 0 0 0 0 0 0 0 0 0 0 0 0 0 0 0 0 0 0 0 0 0 0 0 0 0 0 0 0 0
0 0 0 0 0 0 0 0 0 0 0 0 0 0 0 0 0 0 0 0 0 0 0 0 0 0 0 0 0 0 0 0 0 0 0 0 0 0 0 0 0 0 0
Wind_Speed
2 2 2 2 3 2 3 3 3 4 4 4 4 4 4 4 4 4 4 9 9 8 8 8 8 9 9 9 9 9 8 8 8 7 7 7 7 7 7 7 6 6 5
2 2 2 2 3 2 2 2 3 3 3 3 4 4 4 3 4 4 4 6 9 9 9 8 8 8 8 9 9 8 8 8 8 8 8 7 7 8 8 7 7 7 6
2 2 2 2 2 2 3 3 3 3 3 3 3 3 3 4 4 4 4 4 5 8 9 8 8 8 8 8 8 8 8 8 8 8 8 8 8 8 8 8 7 7 6
2 2 2 1 2 2 2 2 2 3 3 3 2 3 3 3 4 4 4 4 4 4 7 10 8 8 7 7 6 6 7 7 7 8 8 8 8 8 8 8 8 7 6
2 2 1 1 2 2 2 2 2 2 2 2 2 2 3 3 3 4 4 4 4 4 4 7 9 9 8 7 6 5 5 6 7 7 8 8 8 8 8 7 7 7 7
2 2 1 2 2 2 2 2 2 3 2 2 2 3 2 2 2 3 3 3 4 4 4 5 5 6 9 8 7 6 5 5 6 6 6 7 7 7 7 7 7 7 7
2 2 2 2 2 2 1 2 2 2 2 1 2 3 3 3 3 2 2 3 4 4 4 4 3 3 4 8 7 6 6 5 5 5 5 6 6 6 6 5 6 6 6
2 2 2 1 2 2 2 2 2 1 1 2 2 2 3 4 3 3 2 2 3 3 4 4 4 4 4 3 5 7 7 6 5 5 5 5 6 6 6 6 5 5 5
1 2 2 2 2 2 1 1 1 2 1 1 1 2 2 1 2 3 2 2 3 3 3 3 4 4 4 4 3 5 6 6 5 5 4 4 4 4 4 4 4 4 4
0 1 2 2 2 1 1 1 1 1 2 1 1 1 1 2 1 2 3 3 3 3 3 3 4 4 4 3 4 5 6 6 5 4 4 3 3 3 3 3 3 3 3
1 0 1 2 2 1 1 1 1 1 1 2 1 1 1 1 1 1 2 3 3 3 2 2 2 2 3 3 2 4 6 5 5 4 4 3 3 3 3 3 3 3 3
1 1 0 1 2 1 1 1 1 2 1 2 1 1 1 1 1 1 1 2 3 3 3 2 2 2 2 2 4 6 6 5 4 4 4 4 4 4 4 4 3 3 3
1 1 1 0 1 1 2 1 2 1 1 2 1 1 1 1 1 1 1 1 1 2 3 2 2 2 2 2 3 6 6 6 5 4 4 4 4 4 4 4 3 3 3
1 1 0 0 0 0 1 1 1 1 1 1 1 1 0 0 1 1 2 1 1 2 2 3 2 2 2 2 3 4 4 6 5 4 4 4 3 3 3 4 4 4 4
1 1 1 1 1 1 0 1 1 1 1 1 1 1 0 1 0 1 1 2 2 1 3 3 2 2 2 2 3 2 2 5 5 4 4 3 3 3 3 3 3 4 4
1 1 1 1 1 1 0 1 1 0 1 0 1 1 0 1 0 0 1 1 1 2 2 2 2 2 2 3 4 2 2 5 5 4 4 3 3 3 3 3 3 4 4
0 0 1 1 1 1 1 1 1 1 1 0 0 1 1 1 0 0 0 0 0 1 2 2 2 2 2 3 3 3 2 2 2 4 4 4 3 3 3 3 3 4 4
1 1 1 1 1 1 1 1 1 1 1 1 2 1 1 1 0 1 0 1 1 1 1 2 2 2 2 2 2 3 3 3 2 4 4 4 4 4 3 3 3 3 3
0 1 1 1 1 1 1 1 1 1 2 2 2 2 2 1 1 1 1 1 1 1 1 1 2 2 2 2 2 2 3 2 3 3 4 4 4 4 4 4 4 4 4
1 1 1 1 1 0 1 1 1 1 1 1 2 2 2 3 3 2 2 2 1 1 1 1 2 2 2 2 1 2 2 2 2 3 3 3 3 4 5 5 5 5 4
1 1 1 1 0 0 0 0 1 1 0 1 1 2 2 2 2 2 2 2 1 1 1 1 2 2 2 2 2 2 2 3 3 2 2 2 2 2 3 5 5 5 5
1 1 1 1 0 0 1 1 0 0 0 1 1 2 2 2 3 3 3 2 2 2 2 2 2 3 4 3 2 2 2 2 3 2 1 3 1 2 2 2 4 5 5
1 1 1 1 1 1 1 1 1 1 0 1 1 2 2 2 2 1 2 2 2 2 3 3 3 4 4 3 2 3 2 3 4 3 1 3 2 3 3 3 6 6 5
1 1 1 1 1 1 1 0 1 1 0 1 2 2 2 3 2 1 1 1 2 2 2 2 3 4 3 3 3 3 3 3 3 2 1 3 2 3 3 2 5 6 5
1 1 1 1 1 2 1 0 1 1 0 1 2 2 2 3 4 1 1 0 2 2 3 3 3 4 4 4 2 1 1 2 3 3 1 2 2 2 2 2 3 5 5
2 2 1 1 1 1 2 1 1 1 1 1 2 2 3 3 3 1 1 1 1 2 2 2 3 4 3 3 4 1 1 2 2 3 2 1 1 1 2 2 2 2 3
Wind_Direction
47 40 34 38 38 40 46 46 50 48 43 41 45 48 41 32 26 22 12 26 34 39 45 55 58 57 56 55 54 53 53 51 50 51 54 56 61 71 71 74 77 78 80
67 54 44 40 37 40 47 54 52 54 46 45 43 41 37 30 29 26 20 16 24 32 37 45 54 53 53 54 54 53 53 52 50 51 51 52 61 68 66 67 72 72 74
92 82 64 45 32 40 53 58 48 49 51 46 38 36 40 35 34 29 24 20 12 20 28 34 43 47 46 49 50 53 55 56 55 55 54 55 63 65 61 63 69 70 70
98 93 82 56 40 48 55 63 52 51 43 41 34 27 32 30 31 30 30 24 19 14 15 24 31 34 34 35 40 45 51 54 56 56 56 55 62 67 64 61 61 62 62
94 98 96 71 60 61 56 60 51 57 49 34 40 38 28 27 20 31 30 22 19 16 11 15 22 22 22 22 28 38 47 53 57 59 57 56 61 66 65 62 59 58 58
96 96 84 68 67 69 54 51 55 46 50 37 46 38 19 15 23 27 20 18 15 14 14 13 10 8 15 17 21 30 42 48 57 62 59 60 61 62 61 58 59 59 56
106 102 89 76 77 78 72 70 68 59 38 26 49 17 4 19 28 19 12 15 10 6 12 13 8 5 357 5 13 27 37 40 47 59 58 57 57 55 54 51 53 57 55
125 123 118 115 102 89 70 66 74 76 35 35 83 63 5 352 357 6 3 11 1 358 5 7 10 9 357 352 6 21 30 34 41 54 51 51 52 48 46 44 45 48 48
128 132 140 139 125 123 133 115 104 110 99 17 57 112 115 269 317 333 348 359 354 356 345 348 9 5 2 5 6 11 21 24 32 46 48 46 47 43 35 28 26 33 34
114 142 139 138 139 138 146 171 122 128 123 98 20 44 118 163 149 324 331 340 348 351 341 348 357 3 5 4 6 8 14 16 17 26 30 30 27 23 16 11 17 20 16
13 92 141 146 150 160 166 151 112 109 127 142 143 122 73 48 92 147 304 325 338 335 337 337 345 353 356 360 354 360 5 7 8 7 2 353 351 351 355 359 357 355 359
332 322 183 169 172 170 173 169 141 121 118 119 123 134 145 150 181 158 213 294 311 310 325 336 348 344 346 352 349 356 357 356 354 351 347 340 336 337 343 344 344 350 347
318 297 283 199 176 181 173 150 134 136 132 124 140 153 167 188 174 162 164 248 291 301 317 319 325 334 338 344 338 349 352 348 343 339 336 332 332 332 332 334 339 344 348
241 245 237 197 62 141 159 150 140 164 140 147 149 149 158 234 180 170 165 161 312 316 314 297 310 315 325 320 323 341 342 346 342 339 339 336 339 334 336 334 335 339 345
247 224 186 152 106 90 132 147 144 196 152 159 177 174 197 254 226 211 176 169 168 233 281 288 302 312 316 312 324 333 325 333 342 342 340 339 345 342 338 335 342 344 339
280 209 191 156 130 91 89 141 153 187 140 177 173 151 247 255 259 217 189 181 175 187 239 269 273 295 318 325 331 339 323 330 337 342 342 334 340 344 339 341 339 335 333
268 184 205 179 173 159 141 121 175 177 174 224 219 188 246 239 220 254 160 148 181 169 223 279 288 307 326 326 332 334 327 321 325 334 330 333 340 339 335 334 333 331 327
223 187 169 169 193 183 169 162 191 209 200 222 243 224 251 258 258 233 185 200 220 202 193 269 298 312 300 298 314 329 331 331 322 330 335 333 333 328 322 321 320 320 319
215 182 158 162 201 202 198 203 195 215 221 227 229 224 238 211 244 244 229 229 238 246 209 231 290 296 296 304 324 321 322 319 317 329 330 323 326 321 322 323 313 303 299
185 182 191 201 206 235 217 208 190 218 250 260 256 237 234 220 223 224 232 231 233 243 269 254 289 301 294 294 319 312 317 319 316 320 317 310 318 318 320 318 310 300 292
192 175 157 148 128 174 228 269 218 198 226 285 293 273 253 250 247 234 240 227 205 209 240 268 279 296 301 307 285 281 293 305 307 304 305 306 302 301 304 303 300 297 289
146 126 129 144 144 279 3 18 91 149 181 299 298 300 290 274 281 287 286 259 212 206 230 242 265 272 276 274 278 280 287 309 300 305 297 293 278 271 279 277 293 292 284
146 134 156 139 197 258 324 33 96 119 148 255 281 296 307 315 313 269 287 298 283 284 246 226 241 256 262 258 257 275 269 257 262 272 260 282 274 268 269 282 299 295 287
164 172 198 206 231 278 322 43 133 130 221 259 268 275 270 283 288 261 255 310 298 297 273 251 239 258 268 262 240 247 258 275 279 275 230 263 268 263 275 276 290 290 291
165 179 189 189 215 279 321 356 123 156 246 280 282 287 284 274 291 314 137 223 314 315 326 328 323 320 320 318 313 334 296 288 291 284 233 241 271 281 279 271 277 283 288
182 171 173 196 210 268 299 286 134 164 236 288 307 300 299 302 320 357 161 173 262 289 322 340 346 345 341 333 334 309 244 261 278 280 244 223 259 290 294 273 268 283 282